Location: Rehoboth Beach
(38.7438°N, 75.1341°W)
Time: 00:24:32
(UTC-04:00)

Cosmos 1452 Rocket - Visible Passes

Search period start: 02 September 2014 00:00
Search period end: 12 September 2014 00:00
Orbit: 768 x 777 km, 74.1° (Epoch: 01 September)

Date Brightness Start Highest point End Pass type
(mag) Time Alt. Az. Time Alt. Az. Time Alt. Az.
04 Sep 7.1 06:08:07 10° E 06:08:30 10° E 06:08:53 10° E visible
07 Sep 6.3 05:59:18 10° SE 06:03:03 20° E 06:06:48 10° NE visible
08 Sep 6.7 05:26:05 10° ESE 05:27:38 11° E 05:29:11 10° ENE visible
10 Sep 5.2 05:52:55 10° SSE 05:57:42 37° E 06:02:31 10° NE visible
11 Sep 6.0 05:18:14 10° SSE 05:22:11 22° E 05:26:08 10° NE visible
